Wind_Speed
19 19 19 19 19 22 22 24 23 19 18 18 16 15 13 11 10 10 10 11 12 12 13 15 15 13 12 12 12 13 15 14 12 11 12 12 15 17 19 16 21 15 9
22 21 21 21 21 20 23 22 24 23 19 18 17 17 16 14 13 12 12 12 12 12 13 15 15 14 14 14 15 16 16 15 15 14 13 13 14 17 18 21 22 12 16
23 24 24 24 24 20 18 18 22 24 23 20 18 17 17 17 16 16 15 14 13 13 14 15 15 15 17 17 17 17 18 17 14 16 13 14 15 18 21 14 16 18 11
24 26 27 27 25 23 19 19 20 21 23 24 21 20 18 19 19 19 18 16 16 15 16 16 16 16 19 20 19 18 17 18 16 15 16 14 16 16 18 17 18 17 14
25 26 28 28 27 24 20 21 23 22 23 25 25 22 21 20 21 21 20 19 19 17 17 17 17 19 20 22 19 18 18 17 17 15 16 16 15 19 20 18 18 15 7
28 28 29 26 26 26 24 24 25 25 23 26 28 27 25 23 22 21 21 20 21 20 18 19 19 20 22 22 19 18 16 18 20 17 16 17 16 17 19 22 16 15 12
29 28 28 27 28 28 28 28 29 27 26 26 28 28 27 24 22 20 20 22 22 22 22 21 21 22 22 23 20 18 17 17 20 19 18 21 17 16 20 23 19 17 13
30 30 29 28 29 29 29 29 29 29 29 28 28 28 26 23 21 20 19 21 23 23 24 23 22 23 23 24 20 18 20 18 19 20 19 19 21 17 16 21 18 17 17
31 31 30 30 30 30 31 30 30 31 30 29 29 27 26 24 24 23 23 23 25 24 25 25 24 25 24 24 22 20 21 22 21 22 22 21 20 20 16 24 20 18 14
34 33 33 32 32 33 33 32 33 33 34 33 31 31 30 28 26 25 26 26 26 25 25 25 25 26 25 24 23 22 23 23 25 26 25 25 24 22 19 23 24 21 18
36 35 37 37 36 37 36 31 29 27 29 33 32 32 31 30 29 27 28 26 25 24 25 25 26 25 23 25 25 24 25 26 26 27 26 23 24 23 22 22 27 25 24
37 38 38 39 38 37 36 32 30 29 28 32 34 33 33 33 30 28 28 25 24 26 28 26 25 25 23 25 24 24 26 27 27 25 25 23 22 23 22 27 28 28 27
39 39 41 42 42 40 39 37 34 33 30 31 33 34 34 33 32 30 28 26 26 28 30 27 26 24 21 22 23 25 27 26 23 24 23 22 23 21 22 26 30 29 29
42 43 44 44 44 45 42 37 35 36 35 31 32 31 33 33 32 33 30 27 26 27 29 27 27 25 19 19 23 24 26 23 21 19 21 24 23 20 27 24 22 33 32
47 47 46 49 46 45 45 42 38 40 39 38 34 33 28 32 32 32 34 30 29 28 29 29 28 24 21 20 22 25 25 23 22 24 21 24 27 31 29 26 39 30 31
49 50 51 50 50 50 50 46 42 43 39 41 38 36 36 34 34 33 34 33 32 32 30 31 30 25 23 21 22 26 25 23 22 28 27 28 28 29 30 30 23 36 29
48 51 52 53 54 53 53 50 46 40 46 36 40 40 40 40 37 37 35 34 34 36 33 30 31 27 24 22 22 25 25 24 24 24 28 29 25 31 26 26 29 34 32
51 51 52 54 54 55 56 54 52 50 49 49 48 45 45 43 41 40 37 36 36 38 35 30 29 29 24 22 23 24 24 23 23 26 27 27 23 32 32 35 36 34 30
52 54 55 55 56 57 57 58 56 55 54 51 51 48 46 47 43 42 40 39 38 38 36 32 29 28 24 23 23 23 24 23 24 26 22 25 22 26 30 29 33 32 34
51 54 57 59 60 58 58 59 59 57 56 55 49 49 49 48 47 44 43 42 40 37 37 34 30 28 25 24 23 22 23 24 23 20 22 26 26 24 25 28 29 27 31
50 51 53 56 57 59 60 60 59 58 56 56 56 49 49 51 52 47 42 46 41 39 37 37 31 30 27 25 22 21 22 23 22 18 22 32 25 26 24 25 37 34 32
44 45 46 47 50 53 56 57 58 58 58 57 56 56 50 52 54 52 44 47 43 41 38 37 31 31 29 27 21 22 21 22 20 19 17 28 20 23 25 28 32 25 30
42 43 44 46 48 49 51 54 57 57 57 56 57 56 52 48 50 52 51 47 45 42 40 38 34 32 30 27 23 24 22 21 23 21 19 20 27 31 26 26 35 32 33
45 45 46 48 50 52 54 55 55 57 56 54 56 53 50 49 47 52 52 48 46 44 43 40 38 33 32 27 27 26 27 22 23 23 24 21 24 24 28 27 27 37 38
47 49 50 52 53 55 58 60 59 57 56 56 57 54 49 49 48 53 52 50 47 46 44 45 42 37 34 29 28 28 28 27 25 26 29 29 29 28 26 24 25 29 37
49 50 50 51 52 54 58 61 62 61 59 59 58 54 51 49 46 48 51 51 46 46 46 45 47 42 37 30 29 28 30 29 26 27 30 32 33 33 32 31 33 32 37
Wind_Direction
268 271 269 280 284 278 269 267 268 264 261 261 262 262 266 271 280 285 294 305 320 328 325 332 332 328 320 314 302 297 294 292 282 280 283 278 267 256 256 248 244 244 260
268 268 270 281 284 284 275 272 275 272 263 260 264 263 266 272 275 279 282 287 304 313 318 327 329 323 317 310 303 296 296 291 287 278 283 283 282 261 252 254 252 271 255
270 271 273 281 284 287 279 277 265 270 268 270 268 267 267 269 274 280 281 283 289 300 312 317 317 320 315 312 309 305 299 293 289 285 277 282 283 270 260 263 251 259 243
265 268 275 280 285 290 282 279 273 267 264 265 267 271 272 273 273 279 281 282 284 293 303 310 312 310 313 314 311 308 299 293 287 280 282 274 276 271 250 237 248 287 215
266 270 275 281 283 284 282 285 284 281 273 270 273 273 276 275 277 276 280 279 279 282 291 298 304 303 310 310 310 309 298 294 285 279 281 281 291 272 249 246 258 264 243
265 268 270 276 282 286 285 287 289 288 286 276 273 274 281 281 282 281 279 280 279 280 282 288 292 296 303 308 307 304 301 295 287 288 275 278 290 281 249 245 240 248 247
262 264 262 265 273 279 282 287 290 286 284 282 276 278 280 286 284 283 280 280 282 282 279 280 284 289 298 304 303 301 295 291 288 286 286 275 282 281 251 240 253 251 251
257 258 262 266 268 272 277 280 284 285 285 284 278 277 279 283 284 284 281 277 280 280 280 278 282 284 290 298 299 300 295 288 285 289 288 278 282 280 259 237 240 246 241
257 260 261 265 269 272 272 274 277 280 280 280 275 271 274 277 278 278 276 276 278 282 280 276 275 279 284 295 299 301 296 290 285 279 285 279 277 273 249 237 235 235 237
259 261 263 264 265 268 268 267 271 274 276 273 272 274 272 273 270 272 274 274 276 277 276 275 273 273 281 293 300 302 297 288 281 276 278 278 276 268 245 237 233 228 224
261 260 261 263 264 263 265 266 266 264 264 268 269 270 271 272 274 276 276 277 279 278 278 274 271 273 279 290 299 300 300 291 282 275 271 274 273 266 245 235 227 222 221
259 259 259 261 263 262 262 260 264 266 264 263 264 264 268 271 270 272 275 277 282 284 282 279 274 273 279 287 295 298 299 291 281 273 272 268 268 263 247 236 225 219 218
259 261 261 260 260 258 259 258 261 262 262 262 265 263 263 265 269 270 269 275 281 285 283 281 274 271 278 286 294 298 294 289 277 266 265 261 257 255 254 233 225 221 219
259 260 260 260 262 264 266 266 263 263 266 257 257 259 260 261 265 268 268 274 280 281 279 280 275 273 277 288 292 291 291 284 272 257 255 251 257 252 252 249 232 221 213
258 258 259 262 264 264 264 264 263 263 265 261 257 259 258 261 262 264 271 274 279 277 277 280 275 272 278 285 290 287 281 279 262 258 258 254 254 248 249 259 233 227 211
258 257 257 259 261 263 264 264 263 270 256 253 258 258 257 258 261 265 266 272 276 278 275 279 275 272 276 285 285 283 281 271 260 261 259 260 246 249 252 226 247 228 214
259 260 259 259 261 263 266 265 264 264 259 260 252 256 257 258 260 263 265 268 274 277 277 272 271 271 273 281 280 280 273 272 269 268 266 264 247 254 261 235 240 235 214
264 260 259 260 259 260 262 265 265 264 260 261 258 253 255 258 261 262 264 266 267 270 277 272 267 268 273 281 282 277 272 270 266 278 267 247 254 241 261 236 245 217 233
257 261 262 257 257 260 259 260 261 261 262 259 258 254 253 258 260 259 259 261 264 266 273 273 268 267 271 278 282 273 274 271 268 278 244 233 245 262 266 244 222 220 211
257 256 256 261 264 260 258 260 262 262 262 261 258 257 255 256 256 259 256 257 261 263 267 271 269 266 266 275 281 271 278 270 274 268 240 238 252 267 255 236 219 205 195
258 256 257 257 259 261 264 266 266 266 265 262 262 254 253 249 253 253 253 251 255 259 261 264 265 263 263 272 277 265 267 268 272 270 247 245 257 262 252 237 218 217 229
262 260 257 257 257 258 261 262 262 263 264 265 265 262 250 249 250 248 248 246 247 254 257 259 258 258 262 269 269 261 262 261 271 268 265 248 246 258 245 229 219 218 217
258 259 261 262 263 262 260 259 261 260 259 259 260 264 267 257 249 251 251 247 244 247 251 254 253 253 258 265 262 254 259 257 262 268 266 267 258 260 261 245 237 227 220
261 260 259 259 261 262 262 260 258 258 259 259 260 258 256 254 246 244 247 249 246 246 248 249 249 247 255 259 259 255 255 252 256 260 263 260 263 262 259 240 242 233 234
267 267 266 264 264 263 261 260 259 258 258 257 257 257 251 250 246 242 241 245 242 242 246 247 245 243 252 254 253 255 256 256 253 259 262 260 254 257 254 258 260 249 243
271 271 271 269 267 262 259 257 256 255 253 252 254 255 253 249 248 245 243 245 245 240 241 242 243 238 246 250 250 254 258 258 259 258 259 257 256 257 254 248 246 253 251
Height
5863 5862 5862 5863 5863 5862 5861 5861 5862 5861 5860 5860 5859 5859 5859 5859 5860 5859 5858 5858 5857 5855 5856 5854 5852 5851 5850 5849 5849 5847 5847 5846 5845 5844 5843 5842 5842 5842 5842 5842 5841 5841 5842
5858 5858 5858 5858 5859 5859 5858 5858 5857 5858 5858 5857 5857 5856 5856 5855 5856 5856 5856 5855 5854 5853 5853 5851 5851 5849 5848 5848 5847 5846 5845 5844 5843 5842 5841 5840 5840 5839 5840 5839 5838 5838 5840
5854 5854 5854 5854 5854 5855 5855 5854 5853 5853 5854 5854 5854 5853 5853 5852 5852 5852 5852 5852 5851 5850 5849 5849 5848 5847 5846 5845 5845 5844 5842 5841 5840 5839 5838 5837 5837 5837 5837 5836 5837 5837 5836
5850 5850 5850 5850 5850 5851 5851 5851 5849 5849 5849 5850 5850 5851 5850 5850 5849 5849 5849 5848 5847 5846 5846 5846 5845 5845 5844 5843 5841 5840 5838 5837 5837 5836 5835 5834 5834 5834 5833 5834 5835 5834 5836
5845 5845 5845 5846 5846 5847 5847 5847 5846 5845 5845 5846 5846 5847 5847 5847 5846 5846 5845 5844 5843 5843 5842 5842 5842 5841 5840 5840 5839 5837 5836 5835 5833 5832 5831 5831 5830 5829 5830 5830 5832 5834 5834
5839 5840 5841 5841 5841 5841 5842 5843 5842 5841 5842 5842 5841 5841 5841 5842 5842 5842 5841 5840 5839 5839 5838 5839 5839 5838 5837 5837 5835 5834 5833 5832 5830 5828 5828 5827 5826 5825 5827 5828 5828 5830 5832
5834 5835 5835 5836 5836 5836 5837 5837 5837 5837 5837 5837 5836 5836 5837 5838 5837 5837 5836 5836 5835 5834 5835 5835 5835 5834 5833 5833 5832 5831 5831 5829 5827 5826 5825 5824 5823 5822 5822 5824 5825 5827 5829
5827 5828 5830 5831 5830 5830 5831 5831 5832 5832 5832 5832 5831 5831 5831 5832 5833 5832 5832 5831 5831 5831 5831 5831 5831 5829 5829 5829 5828 5827 5827 5825 5824 5822 5821 5820 5819 5818 5818 5821 5822 5824 5826
5821 5822 5823 5824 5824 5825 5825 5826 5826 5827 5827 5827 5827 5825 5826 5826 5827 5828 5828 5827 5827 5826 5826 5826 5826 5826 5825 5825 5825 5824 5823 5821 5820 5818 5817 5816 5815 5815 5815 5817 5819 5821 5823
5815 5816 5817 5818 5818 5819 5819 5819 5821 5821 5821 5822 5822 5822 5821 5821 5820 5821 5822 5822 5822 5821 5821 5821 5822 5821 5821 5821 5820 5820 5819 5818 5815 5813 5813 5812 5810 5810 5811 5812 5814 5817 5820
5808 5809 5811 5811 5812 5812 5812 5814 5815 5815 5815 5815 5815 5816 5816 5816 5816 5815 5816 5816 5816 5816 5816 5816 5816 5816 5816 5816 5815 5815 5813 5812 5810 5808 5807 5807 5806 5806 5806 5807 5809 5812 5816
5800 5802 5802 5804 5806 5807 5807 5807 5809 5809 5809 5808 5808 5808 5809 5810 5810 5810 5811 5811 5812 5811 5811 5811 5811 5811 5811 5811 5811 5809 5807 5806 5804 5803 5802 5801 5801 5802 5801 5802 5805 5807 5811
5792 5794 5795 5795 5796 5797 5799 5801 5803 5803 5804 5803 5803 5802 5802 5803 5805 5805 5805 5805 5806 5805 5805 5805 5805 5805 5805 5805 5805 5803 5802 5800 5799 5798 5797 5797 5796 5797 5797 5797 5800 5803 5807
5781 5783 5784 5786 5787 5788 5789 5793 5795 5797 5798 5797 5796 5796 5797 5797 5798 5798 5799 5800 5799 5799 5800 5800 5800 5800 5800 5800 5799 5798 5796 5795 5794 5793 5793 5792 5791 5792 5792 5792 5793 5798 5800
5771 5772 5773 5774 5777 5779 5780 5783 5786 5787 5789 5790 5790 5790 5789 5790 5790 5791 5791 5793 5793 5793 5794 5794 5794 5795 5794 5794 5793 5792 5791 5790 5789 5789 5788 5788 5787 5787 5787 5786 5757 5790 5796
5761 5762 5762 5764 5766 5766 5768 5771 5775 5777 5777 5781 5783 5783 5783 5783 5784 5784 5784 5786 5787 5787 5788 5788 5788 5789 5789 5788 5787 5785 5784 5783 5783 5783 5782 5782 5782 5783 5782 5777 5764 5783 5789
5754 5754 5754 5754 5754 5756 5757 5761 5763 5767 5768 5771 5773 5775 5775 5775 5777 5778 5779 5779 5780 5780 5782 5782 5782 5783 5783 5782 5780 5778 5778 5777 5778 5776 5776 5776 5777 5777 5776 5773 5783 5787 5786
5739 5742 5744 5744 5744 5746 5747 5749 5753 5755 5758 5760 5764 5766 5766 5766 5768 5770 5771 5772 5772 5772 5774 5775 5776 5777 5777 5776 5773 5772 5772 5771 5771 5770 5769 5770 5771 5770 5770 5771 5763 5766 5778
5729 5728 5728 5732 5732 5733 5736 5737 5740 5742 5746 5750 5753 5757 5758 5759 5761 5762 5762 5764 5764 5765 5767 5768 5770 5771 5771 5769 5768 5766 5766 5766 5765 5764 5762 5764 5765 5765 5760 5763 5767 5763 5773
5717 5718 5718 5718 5718 5722 5726 5726 5728 5732 5734 5739 5744 5746 5748 5751 5751 5752 5753 5755 5757 5757 5759 5761 5763 5764 5765 5763 5761 5761 5760 5760 5759 5757 5758 5759 5759 5757 5757 5757 5762 5761 5770
5703 5705 5706 5707 5708 5709 5710 5712 5714 5717 5721 5725 5727 5734 5735 5738 5741 5742 5743 5745 5748 5750 5751 5753 5756 5757 5758 5757 5756 5755 5755 5755 5754 5752 5753 5753 5753 5752 5752 5756 5757 5761 5768
5690 5692 5693 5694 5694 5696 5697 5699 5702 5705 5708 5710 5712 5716 5724 5726 5729 5732 5732 5735 5738 5741 5744 5745 5748 5749 5751 5750 5750 5749 5750 5751 5749 5748 5749 5749 5750 5751 5749 5752 5754 5757 5760
5679 5680 5680 5681 5682 5683 5685 5687 5688 5690 5693 5696 5701 5705 5710 5716 5720 5723 5725 5725 5728 5731 5735 5737 5740 5742 5744 5744 5743 5744 5744 5745 5743 5743 5744 5745 5745 5745 5747 5746 5750 5753 5755
5667 5668 5669 5669 5670 5670 5671 5673 5675 5677 5680 5684 5686 5692 5696 5700 5706 5709 5713 5715 5719 5722 5725 5729 5732 5734 5736 5738 5737 5737 5738 5738 5738 5739 5739 5739 5740 5741 5741 5742 5744 5748 5751
5655 5656 5657 5657 5657 5657 5657 5658 5660 5664 5668 5670 5672 5677 5683 5687 5692 5695 5700 5704 5707 5712 5717 5720 5723 5726 5727 5730 5731 5731 5732 5733 5732 5732 5732 5732 5734 5736 5737 5737 5738 5742 5745
5642 5642 5642 5642 5642 5641 5641 5641 5643 5648 5652 5655 5659 5664 5669 5674 5680 5684 5690 5693 5698 5701 5705 5710 5713 5716 5719 5722 5723 5724 5725 5727 5726 5726 5726 5725 5727 5729 5730 5733 5734 5735 5736